This demonstration page uses our WeatherBlox Daily Observations layout. Learn more.

39.51506, -84.39828

Hourly Observations for November 26, 2019

Temp ( °F °C ) Dew Point ( °F °C ) Humidity (%) Winds ( mph kmh ) Pressure ( in mb ) Visibility ( mi km ) Precip ( " mm )
12:15 am 00:15 Clear 40 4.7 38 3.3 91 91 SW 6 9 29.85 1011 10 16.0934 0 0
12:35 am 00:35 Clear 37 2.6 35 1.8 95 95 SSW 5 7 29.87 1011 10 16.0934 0 0
12:55 am 00:55 Clear 37 2.9 36 2.4 97 97 SSW 3 6 29.87 1011 10 16.0934 0 0
1:15 am 01:15 Clear 36 2.4 36 2 97 97 SW 3 6 29.87 1011 10 16.0934 0 0
1:35 am 01:35 Clear with Mist and Fog 34 1.1 33 0.8 98 98 Calm 29.88 1012 2 3.21868 0 0
1:55 am 01:55 Mostly Cloudy with Mist and Fog 36 2.2 36 2 99 99 Calm 29.89 1012 1.75 2.816345 0 0
2:15 am 02:15 Clear 35 1.6 35 1.5 99 99 Calm 29.89 1012 10 16.0934 0 0
2:35 am 02:35 Clear with Mist and Fog 35 1.4 34 1.3 99 99 Calm 29.9 1013 5 8.0467 0 0
2:55 am 02:55 Mostly Cloudy with Fog 34 0.9 34 0.9 100 100 Calm 29.9 1013 0.5 0.80467 0 0
3:15 am 03:15 Mostly Cloudy with Fog 33 0.7 33 0.6 99 99 Calm 29.91 1013 0.5 0.80467 0 0
3:35 am 03:35 Mostly Cloudy with Fog 33 0.3 32 0.2 99 99 Calm 29.91 1013 0.5 0.80467 0 0
3:55 am 03:55 Mostly Cloudy with Fog 33 0.4 33 0.3 99 99 Calm 29.91 1013 0.5 0.80467 0 0
4:15 am 04:15 Mostly Cloudy with Freezing Fog 31 -0.7 31 -0.8 99 99 Calm 29.91 1013 0.5 0.80467 0 0
4:35 am 04:35 Mostly Cloudy with Mist and Fog 31 -0.7 31 -0.8 99 99 WSW 3 6 29.92 1013 1.5 2.41401 0 0
4:55 am 04:55 Clear 33 0.3 33 0.3 100 100 WSW 3 6 29.91 1013 7 11.26538 0 0
5:15 am 05:15 Clear with Mist and Fog 33 0.4 33 0.3 99 99 Calm 29.91 1013 7 11.26538 0 0
5:35 am 05:35 Clear 34 0.9 34 0.9 100 100 Calm 29.91 1013 7 11.26538 0 0
5:55 am 05:55 Mostly Cloudy with Mist and Fog 32 0.2 32 0.2 100 100 Calm 29.91 1013 0.75 1.207005 0 0
6:15 am 06:15 Mostly Cloudy with Mist and Fog 32 -0.1 32 -0.1 100 100 Calm 29.92 1013 1.25 2.011675 0 0
6:35 am 06:35 Mostly Cloudy with Fog 31 -0.3 31 -0.3 100 100 Calm 29.92 1013 0.25 0.402335 0 0
6:55 am 06:55 Clear with Mist and Fog 32 0.1 32 0.1 100 100 Calm 29.92 1013 3.5 5.63269 0 0
7:15 am 07:15 Clear with Mist and Fog 33 0.3 32 0.2 99 99 Calm 29.92 1013 7 11.26538 0 0
7:35 am 07:35 Sunny with Mist and Fog 31 -0.3 31 -0.3 100 100 Calm 29.94 1014 5 8.0467 0 0
7:55 am 07:55 Sunny with Mist and Fog 33 0.4 33 0.4 100 100 Calm 29.94 1014 5 8.0467 0 0
8:15 am 08:15 Sunny with Mist and Fog 33 0.7 33 0.6 99 99 Calm 29.95 1014 7 11.26538 0 0
8:35 am 08:35 Sunny 34 0.9 33 0.8 99 99 Calm 29.96 1015 7 11.26538 0 0
8:55 am 08:55 Sunny 37 3 37 2.9 99 99 Calm 29.96 1014 10 16.0934 0 0
9:15 am 09:15 Sunny 42 5.4 41 5 97 97 Calm 29.95 1014 10 16.0934 0 0
9:35 am 09:35 Sunny 45 7.3 43 6 92 92 S 3 6 29.96 1014 10 16.0934 0 0
9:55 am 09:55 Sunny 48 8.9 42 5.5 79 79 S 8 13 29.95 1014 10 16.0934 0 0
10:15 am 10:15 Sunny 51 10.5 41 5.2 70 70 S 10 17 29.95 1014 10 16.0934 0 0
10:35 am 10:35 Sunny 52 11.1 41 5.2 67 67 SSW 10 17 29.96 1014 10 16.0934 0 0
10:55 am 10:55 Sunny 53 11.6 41 4.9 64 64 SSW 9 15 29.95 1014 10 16.0934 0 0
11:15 am 11:15 Sunny 53 11.4 41 4.9 65 65 S 7 11 29.95 1014 10 16.0934 0 0
11:35 am 11:35 Sunny 55 12.5 42 5.3 62 62 S 9 15 29.93 1014 10 16.0934 0 0
11:55 am 11:55 Sunny 54 12.4 41 5 61 61 S 12 19 29.93 1014 10 16.0934 0 0
12:15 pm 12:15 Sunny 57 13.7 42 5.6 58 58 S 8 13 29.92 1013 10 16.0934 0 0
12:35 pm 12:35 Sunny 57 14 42 5.7 58 58 SE 9 15 29.9 1012 10 16.0934 0 0
12:55 pm 12:55 Sunny 57 14 42 5.6 57 57 SSE 9 15 29.89 1012 10 16.0934 0 0
1:15 pm 13:15 Cloudy 57 13.7 42 5.6 58 58 SE 7 11 29.88 1012 10 16.0934 0 0
1:35 pm 13:35 Cloudy 57 13.7 42 5.8 59 59 SSE 6 9 29.89 1012 10 16.0934 0 0
1:55 pm 13:55 Mostly Cloudy 58 14.5 43 5.9 57 57 SSE 9 15 29.88 1012 10 16.0934 0 0
2:15 pm 14:15 Mostly Cloudy 58 14.5 42 5.8 56 56 S 9 15 29.88 1012 10 16.0934 0 0
2:35 pm 14:35 Cloudy 58 14.3 42 5.6 56 56 S 10 17 29.88 1012 10 16.0934 0 0
2:55 pm 14:55 Cloudy 58 14.2 42 5.8 57 57 S 12 19 29.87 1011 10 16.0934 0 0
3:15 pm 15:15 Cloudy 57 14 42 5.8 58 58 S 8 13 29.87 1011 10 16.0934 0 0
3:35 pm 15:35 Cloudy 58 14.3 42 5.7 57 57 SSE 14 22 29.86 1011 10 16.0934 0 0
3:55 pm 15:55 Cloudy 57 14.1 42 5.8 58 58 SSE 12 19 29.87 1011 10 16.0934 0 0
4:15 pm 16:15 Cloudy 57 13.8 43 6 60 60 SSE 7 11 29.86 1011 10 16.0934 0 0
4:35 pm 16:35 Mostly Cloudy 57 13.8 43 6 60 60 SSE 9 15 29.85 1011 10 16.0934 0 0
4:55 pm 16:55 Sunny 56 13.5 43 6 61 61 SSE 8 13 29.85 1011 10 16.0934 0 0
5:15 pm 17:15 Sunny 56 13.5 43 5.9 60 60 SSE 12 19 29.85 1011 10 16.0934 0 0
5:35 pm 17:35 Mostly Cloudy 56 13.4 43 5.9 61 61 SSE 9 15 29.84 1011 10 16.0934 0 0
5:55 pm 17:55 Clear 55 13 43 6.1 63 63 SE 8 13 29.83 1010 10 16.0934 0 0
6:15 pm 18:15 Partly Cloudy 55 13 43 5.9 62 62 SSE 7 11 29.83 1010 10 16.0934 0 0
6:35 pm 18:35 Cloudy 56 13.3 42 5.5 59 59 SSE 12 19 29.84 1011 10 16.0934 0 0
6:55 pm 18:55 Cloudy 56 13.2 41 5.1 58 58 SSE 8 13 29.85 1011 10 16.0934 0 0
7:15 pm 19:15 Cloudy 55 13 41 5.1 59 59 S 7 11 29.85 1011 10 16.0934 0 0
7:35 pm 19:35 Cloudy with Heavy Rain 54 12.4 42 5.5 63 63 SSE 8 13 29.84 1011 10 16.0934 0 0
7:55 pm 19:55 Cloudy with Light Rain 52 11.3 44 6.5 73 73 SSE 5 7 29.86 1011 7 11.26538 0 0
8:15 pm 20:15 Cloudy 51 10.8 44 6.6 76 76 S 8 13 29.87 1011 10 16.0934 0 0
8:35 pm 20:35 Cloudy 52 11 43 6.2 73 73 SSE 7 11 29.86 1011 10 16.0934 0 0
8:55 pm 20:55 Mostly Cloudy 52 11 43 6 72 72 SSE 6 9 29.85 1011 10 16.0934 0 0
9:15 pm 21:15 Cloudy with Light Rain 53 11.4 42 5.7 68 68 S 7 11 29.84 1010 10 16.0934 0 0
9:35 pm 21:35 Cloudy with Light Rain 52 10.9 43 6 72 72 S 10 17 29.82 1010 10 16.0934 0 0
9:55 pm 21:55 Cloudy with Light Rain 52 11 44 6.5 74 74 S 10 17 29.81 1009 10 16.0934 0 0
10:15 pm 22:15 Cloudy with Light Rain 51 10.6 44 6.8 78 78 S 13 20 29.81 1009 10 16.0934 0 0
10:35 pm 22:35 Cloudy with Light Rain 51 10.4 45 7.4 82 82 S 9 15 29.81 1009 10 16.0934 0 0
10:55 pm 22:55 Cloudy with Light Rain 50 9.9 46 7.8 87 87 S 9 15 29.82 1010 10 16.0934 0 0
11:15 pm 23:15 Cloudy with Light Rain 50 10 46 7.9 87 87 S 10 17 29.81 1009 7 11.26538 0 0
11:35 pm 23:35 Cloudy with Light Rain 50 9.9 47 8.3 90 90 S 12 19 29.8 1009 10 16.0934 0 0
11:55 pm 23:55 Cloudy with Rain 50 9.8 47 8.5 92 92 S 8 13 29.79 1009 7 11.26538 0 0

Powered by AerisWeather